Home   Weather   Sapporo   Past weeks

Flag for Japan Past Weather in Sapporo, Japan — Yesterday and Last 2 Weeks

Now
35 °F

Chilly.


Feels Like: 28 °F
Forecast: 22 / 29 °F
Wind: 8 mph from Northwest

Location: Sapporo

Current Time: Dec 9, 2016 at 4:43:01 pm

Latest Report: Dec 9, 2016 at 4:00 pm


Visibility: N/A

Pressure: 29.72 "Hg

Humidity: 87%

Dew Point: 31 °F

Location of SapporoLocation

Past Weather in Sapporo — Graph

°F

Sapporo Temperature Yesterday

Maximum temperature yesterday: 30 °F (at 2:00 pm)
Minimum temperature yesterday: 21 °F (at 12:00 am)
Average temperature yesterday: 27 °F

High & Low Weather Summary for the Past Weeks

 TemperatureHumidityPressure
High53 °F (Dec 4, 2:00 pm)95% (Dec 6, 5:00 am)30.50 "Hg (Dec 6, 5:00 am)
Low21 °F (Dec 7, 1:00 am)35% (Dec 3, 6:00 am)29.54 "Hg (Dec 6, 7:00 am)
Average34 °F65%30.01 "Hg
* Reported Nov 24 3:00 pm — Dec 9 3:00 pm, Sapporo, Weather by CustomWeather, © 2016

Note: Actual official high and low records may vary slightly from our data, if they occured in-between our weather recording intervals... More about our weather records

Advertising

Sapporo Weather History for the Previous 24 Hours

Scroll right to see more
 ConditionsComfort  
Time TempWeatherWind HumidityBarometerVisibility
3:00 pm
Fri, Dec 9
34 °FSnow flurries. Overcast.8 mph91%29.71 "Hg2 mi
2:00 pm34 °FChilly.7 mph87%29.72 "HgN/A
1:00 pm33 °FChilly.6 mph89%29.73 "HgN/A
12:00 pm32 °FSnow flurries. Overcast.2 mph88%29.75 "Hg1 mi
11:00 am31 °FChilly.5 mph90%29.78 "HgN/A
10:00 am30 °FChilly.No wind91%29.83 "HgN/A
9:00 am29 °FSnow flurries. Overcast.2 mph90%29.85 "Hg1 mi
8:00 am29 °FChilly.1 mph87%29.90 "HgN/A
7:00 am29 °FChilly.2 mph84%29.90 "HgN/A
6:00 am29 °FSnow flurries. Overcast.2 mph80%29.93 "Hg6 mi
5:00 am28 °FChilly.5 mph80%29.94 "HgN/A
4:00 am28 °FChilly.2 mph83%29.96 "HgN/A
3:00 am28 °FPassing clouds.2 mph79%29.98 "Hg9 mi
1:00 am29 °FChilly.1 mph74%29.99 "HgN/A
12:00 am29 °FChilly.1 mph73%30.00 "HgN/A
11:00 pm
Thu, Dec 8
29 °FChilly.1 mph70%30.01 "HgN/A
10:00 pm30 °FChilly.3 mph68%30.01 "HgN/A
9:00 pm30 °FOvercast.6 mph66%30.01 "Hg6 mi
8:00 pm29 °FChilly.9 mph70%30.02 "HgN/A
7:00 pm29 °FChilly.6 mph62%30.03 "HgN/A
6:00 pm29 °FOvercast.3 mph61%30.03 "Hg6 mi
5:00 pm29 °FChilly.5 mph59%30.03 "HgN/A
4:00 pm30 °FChilly.3 mph63%30.01 "HgN/A
Weather by CustomWeather, © 2016

See weather overviewHow to use our weather pages